QPF
0.00 0.00 0.00 0.00 0.00 0.00 0.00 0.00 0.00 0.00 0.00 0.00 0.00 0.00 0.00 0.00 0.00 0.00 0.00 0.00 0.00 0.00 0.00 0.00 0.00 0.00 0.00 0.00 0.00 0.00 0.00 0.00 0.01 0.00 0.00 0.00 0.00 0.00 0.00 0.00 0.00 0.00 0.00
0.00 0.00 0.00 0.00 0.00 0.00 0.00 0.00 0.00 0.00 0.00 0.00 0.00 0.00 0.00 0.00 0.00 0.00 0.00 0.00 0.00 0.00 0.00 0.00 0.00 0.00 0.00 0.00 0.00 0.00 0.00 0.00 0.01 0.00 0.00 0.00 0.00 0.00 0.00 0.00 0.00 0.00 0.00
0.00 0.00 0.00 0.00 0.00 0.00 0.00 0.00 0.00 0.00 0.00 0.00 0.00 0.00 0.00 0.00 0.00 0.00 0.00 0.00 0.00 0.00 0.00 0.00 0.00 0.00 0.00 0.00 0.01 0.02 0.02 0.02 0.02 0.00 0.00 0.00 0.00 0.00 0.00 0.00 0.00 0.00 0.00
0.00 0.00 0.00 0.00 0.00 0.00 0.00 0.00 0.00 0.00 0.00 0.00 0.00 0.00 0.00 0.00 0.00 0.02 0.03 0.01 0.00 0.00 0.00 0.00 0.00 0.01 0.01 0.02 0.05 0.08 0.07 0.06 0.03 0.01 0.00 0.00 0.00 0.00 0.00 0.00 0.00 0.00 0.00
0.00 0.00 0.00 0.00 0.00 0.00 0.00 0.00 0.00 0.00 0.00 0.00 0.00 0.00 0.00 0.00 0.00 0.02 0.04 0.03 0.02 0.01 0.00 0.00 0.00 0.00 0.01 0.04 0.08 0.10 0.08 0.06 0.02 0.00 0.00 0.00 0.00 0.00 0.00 0.00 0.00 0.00 0.00
0.00 0.00 0.00 0.00 0.00 0.00 0.00 0.00 0.00 0.00 0.00 0.00 0.00 0.00 0.00 0.00 0.00 0.01 0.01 0.02 0.00 0.00 0.00 0.00 0.00 0.00 0.01 0.05 0.08 0.11 0.09 0.05 0.01 0.00 0.00 0.00 0.00 0.00 0.00 0.00 0.00 0.00 0.00
0.00 0.00 0.00 0.00 0.00 0.00 0.00 0.00 0.00 0.00 0.00 0.00 0.00 0.00 0.00 0.00 0.00 0.00 0.00 0.00 0.00 0.00 0.00 0.00 0.00 0.00 0.04 0.07 0.11 0.12 0.07 0.02 0.00 0.00 0.00 0.00 0.00 0.00 0.00 0.00 0.00 0.00 0.00
0.00 0.00 0.00 0.00 0.00 0.00 0.00 0.00 0.00 0.00 0.00 0.00 0.00 0.00 0.00 0.00 0.00 0.00 0.00 0.00 0.00 0.00 0.00 0.00 0.01 0.02 0.05 0.10 0.13 0.12 0.09 0.02 0.00 0.00 0.00 0.00 0.00 0.00 0.00 0.00 0.00 0.00 0.00
0.00 0.00 0.00 0.00 0.00 0.00 0.00 0.00 0.00 0.00 0.00 0.00 0.00 0.00 0.00 0.00 0.00 0.00 0.00 0.00 0.00 0.00 0.01 0.01 0.03 0.03 0.09 0.12 0.10 0.05 0.01 0.00 0.00 0.00 0.00 0.00 0.00 0.00 0.00 0.00 0.00 0.01 0.00
0.00 0.00 0.00 0.00 0.00 0.00 0.00 0.00 0.00 0.00 0.00 0.00 0.00 0.00 0.00 0.00 0.00 0.00 0.00 0.00 0.00 0.02 0.02 0.03 0.07 0.08 0.09 0.07 0.03 0.01 0.00 0.00 0.00 0.00 0.00 0.00 0.00 0.00 0.00 0.00 0.01 0.01 0.01
0.00 0.00 0.00 0.00 0.00 0.00 0.00 0.00 0.00 0.00 0.00 0.00 0.00 0.00 0.00 0.00 0.00 0.00 0.00 0.00 0.00 0.01 0.03 0.05 0.05 0.05 0.06 0.03 0.01 0.01 0.00 0.00 0.00 0.00 0.00 0.00 0.00 0.00 0.00 0.00 0.00 0.01 0.01
0.00 0.00 0.00 0.00 0.00 0.00 0.00 0.00 0.00 0.00 0.00 0.00 0.00 0.00 0.00 0.00 0.00 0.00 0.00 0.00 0.00 0.01 0.03 0.03 0.04 0.03 0.02 0.01 0.00 0.00 0.00 0.00 0.00 0.00 0.00 0.00 0.00 0.00 0.00 0.00 0.00 0.00 0.00
0.00 0.00 0.00 0.00 0.00 0.00 0.00 0.00 0.00 0.00 0.00 0.00 0.00 0.00 0.00 0.00 0.00 0.00 0.00 0.00 0.00 0.00 0.00 0.00 0.00 0.00 0.00 0.00 0.00 0.00 0.00 0.00 0.00 0.00 0.00 0.00 0.00 0.00 0.00 0.00 0.00 0.00 0.00
0.00 0.00 0.00 0.00 0.00 0.00 0.00 0.00 0.00 0.00 0.00 0.00 0.00 0.00 0.00 0.00 0.00 0.00 0.00 0.00 0.00 0.00 0.00 0.00 0.00 0.00 0.00 0.00 0.00 0.00 0.00 0.00 0.00 0.00 0.00 0.00 0.00 0.00 0.00 0.00 0.00 0.00 0.00
0.00 0.00 0.00 0.00 0.00 0.00 0.00 0.00 0.00 0.00 0.00 0.00 0.00 0.00 0.00 0.00 0.00 0.00 0.00 0.00 0.00 0.00 0.01 0.00 0.00 0.00 0.00 0.00 0.00 0.00 0.00 0.00 0.00 0.00 0.00 0.00 0.00 0.00 0.00 0.00 0.00 0.00 0.00
0.00 0.00 0.00 0.00 0.00 0.00 0.00 0.00 0.00 0.00 0.00 0.00 0.00 0.00 0.00 0.00 0.00 0.00 0.00 0.00 0.00 0.00 0.00 0.00 0.00 0.00 0.00 0.00 0.00 0.00 0.00 0.00 0.00 0.00 0.00 0.00 0.00 0.00 0.00 0.00 0.00 0.00 0.00
0.00 0.00 0.00 0.00 0.00 0.00 0.00 0.00 0.00 0.00 0.00 0.00 0.00 0.00 0.00 0.00 0.00 0.00 0.00 0.00 0.00 0.00 0.00 0.00 0.00 0.00 0.00 0.00 0.00 0.00 0.00 0.00 0.00 0.00 0.00 0.00 0.00 0.00 0.00 0.00 0.00 0.00 0.00
0.00 0.00 0.00 0.00 0.00 0.00 0.00 0.00 0.00 0.00 0.00 0.00 0.00 0.00 0.00 0.00 0.01 0.02 0.01 0.01 0.01 0.00 0.00 0.00 0.00 0.00 0.00 0.00 0.00 0.00 0.00 0.00 0.00 0.00 0.00 0.00 0.00 0.00 0.00 0.00 0.00 0.00 0.00
0.00 0.00 0.00 0.00 0.00 0.00 0.00 0.00 0.00 0.00 0.00 0.00 0.00 0.00 0.00 0.00 0.00 0.00 0.01 0.02 0.02 0.01 0.01 0.01 0.01 0.00 0.00 0.00 0.00 0.00 0.00 0.00 0.00 0.00 0.00 0.00 0.00 0.00 0.00 0.00 0.00 0.00 0.00
0.00 0.00 0.00 0.00 0.00 0.00 0.00 0.00 0.00 0.00 0.00 0.00 0.00 0.00 0.00 0.00 0.00 0.00 0.01 0.02 0.01 0.01 0.02 0.02 0.01 0.00 0.00 0.00 0.00 0.00 0.00 0.00 0.00 0.00 0.00 0.00 0.00 0.00 0.00 0.00 0.00 0.00 0.00
0.00 0.00 0.00 0.00 0.00 0.00 0.00 0.00 0.00 0.00 0.00 0.00 0.00 0.00 0.00 0.00 0.00 0.00 0.00 0.01 0.02 0.02 0.02 0.01 0.00 0.00 0.00 0.00 0.00 0.00 0.00 0.00 0.00 0.00 0.00 0.00 0.00 0.00 0.00 0.00 0.00 0.00 0.00
0.00 0.00 0.00 0.00 0.00 0.00 0.00 0.00 0.00 0.00 0.00 0.00 0.00 0.00 0.00 0.00 0.00 0.00 0.00 0.00 0.01 0.00 0.00 0.00 0.00 0.00 0.00 0.00 0.00 0.00 0.00 0.00 0.00 0.00 0.00 0.00 0.00 0.00 0.00 0.00 0.00 0.00 0.00
0.00 0.00 0.00 0.00 0.00 0.00 0.00 0.00 0.00 0.00 0.00 0.00 0.00 0.00 0.00 0.00 0.00 0.00 0.00 0.00 0.00 0.00 0.00 0.00 0.00 0.00 0.00 0.00 0.00 0.00 0.00 0.00 0.00 0.00 0.00 0.00 0.00 0.00 0.00 0.00 0.00 0.00 0.00
0.00 0.00 0.00 0.00 0.00 0.00 0.00 0.00 0.00 0.00 0.00 0.00 0.00 0.00 0.00 0.00 0.00 0.00 0.00 0.00 0.00 0.00 0.00 0.00 0.00 0.00 0.00 0.00 0.00 0.00 0.00 0.00 0.00 0.00 0.00 0.00 0.00 0.00 0.00 0.00 0.00 0.00 0.00
0.00 0.00 0.00 0.00 0.00 0.00 0.00 0.00 0.00 0.00 0.00 0.00 0.00 0.00 0.00 0.00 0.00 0.00 0.00 0.00 0.00 0.00 0.00 0.00 0.00 0.00 0.00 0.00 0.00 0.00 0.00 0.00 0.00 0.00 0.00 0.00 0.00 0.00 0.00 0.00 0.00 0.00 0.00
0.00 0.00 0.00 0.00 0.00 0.00 0.00 0.00 0.00 0.00 0.00 0.00 0.00 0.00 0.00 0.00 0.00 0.00 0.00 0.00 0.00 0.00 0.00 0.00 0.00 0.00 0.00 0.00 0.00 0.00 0.00 0.00 0.00 0.00 0.00 0.00 0.00 0.00 0.00 0.00 0.00 0.00 0.00
MSLP
1004.51 1004.44 1004.54 1005.29 1005.73 1006.48 1007.36 1008.05 1008.77 1009.05 1009.92 1010.56 1011.05 1011.45 1011.15 1011.72 1012.01 1012.04 1012.17 1012.45 1012.79 1013.19 1013.50 1013.83 1014.18 1014.34 1014.70 1014.88 1015.22 1015.95 1016.49 1016.74 1016.83 1017.33 1017.39 1017.34 1017.46 1017.41 1017.52 1017.50 1017.47 1017.29 1017.40
1003.94 1003.67 1003.99 1004.19 1004.95 1005.08 1005.74 1006.76 1007.39 1008.21 1008.53 1009.10 1009.67 1010.48 1010.82 1011.15 1011.55 1011.84 1011.88 1011.90 1012.03 1012.29 1012.65 1013.04 1013.29 1013.69 1014.13 1014.65 1015.10 1015.50 1016.09 1016.41 1016.86 1017.34 1018.23 1018.71 1018.17 1017.89 1017.67 1017.34 1017.47 1017.18 1017.04
1003.51 1003.01 1003.51 1003.49 1003.90 1004.44 1004.87 1005.37 1005.85 1006.53 1007.33 1008.19 1009.35 1010.12 1010.54 1010.87 1011.16 1011.20 1011.18 1011.21 1011.33 1011.63 1011.83 1012.09 1012.62 1013.10 1013.49 1013.95 1014.50 1014.73 1015.12 1016.01 1016.36 1016.21 1017.09 1018.38 1019.03 1018.55 1017.86 1017.45 1017.61 1017.20 1017.07
1002.86 1002.48 1002.86 1003.33 1003.40 1003.38 1003.92 1004.74 1005.32 1006.11 1006.97 1007.78 1008.54 1009.09 1009.36 1009.86 1009.67 1010.09 1010.61 1010.67 1010.79 1010.95 1011.15 1011.34 1011.94 1012.44 1012.89 1013.20 1013.49 1014.01 1014.57 1015.09 1015.44 1015.72 1016.95 1017.26 1018.11 1018.79 1018.94 1017.61 1017.82 1017.53 1017.23
1002.61 1002.40 1002.78 1002.48 1002.67 1003.44 1003.98 1004.73 1005.64 1006.28 1006.91 1007.48 1008.03 1008.69 1009.12 1009.34 1009.62 1010.06 1010.41 1010.42 1010.51 1010.56 1010.63 1010.86 1011.26 1011.79 1012.28 1012.69 1013.17 1013.88 1013.85 1015.52 1014.03 1014.54 1016.86 1017.99 1018.17 1018.22 1018.92 1018.30 1018.28 1017.80 1017.11
1003.06 1002.78 1002.90 1003.00 1003.44 1003.98 1004.57 1005.16 1005.93 1006.59 1007.08 1007.55 1007.96 1008.24 1008.57 1008.99 1009.46 1009.81 1010.00 1009.96 1010.06 1010.36 1010.41 1010.34 1010.54 1010.84 1011.29 1011.72 1012.36 1013.17 1013.55 1014.59 1014.91 1015.52 1016.76 1016.47 1018.19 1018.49 1018.08 1018.05 1018.21 1017.48 1016.99
1004.06 1003.22 1003.46 1003.83 1004.05 1004.42 1004.83 1005.32 1005.82 1006.25 1006.50 1006.85 1007.29 1007.61 1008.09 1008.62 1008.86 1009.03 1009.15 1009.36 1009.50 1009.53 1009.44 1009.71 1009.97 1010.25 1010.61 1011.26 1011.65 1012.32 1012.78 1012.47 1013.80 1015.21 1015.75 1015.83 1017.25 1017.45 1017.11 1017.63 1017.45 1016.60 1015.96
1004.39 1004.46 1004.23 1004.23 1004.43 1004.61 1004.92 1005.22 1005.58 1005.90 1006.30 1006.65 1006.87 1007.17 1007.46 1007.77 1007.94 1008.09 1008.30 1008.54 1008.74 1008.73 1008.86 1009.02 1009.35 1009.72 1010.24 1010.68 1011.07 1011.71 1012.19 1014.43 1012.69 1014.74 1014.62 1015.37 1016.23 1016.32 1016.72 1016.99 1016.87 1016.02 1015.83
1004.35 1004.35 1004.63 1004.61 1004.39 1004.45 1004.46 1004.42 1004.77 1005.14 1005.42 1005.66 1006.13 1006.40 1006.75 1006.98 1006.91 1007.22 1007.61 1007.69 1007.76 1007.84 1007.93 1008.21 1008.74 1009.20 1009.84 1010.33 1010.80 1011.32 1012.51 1012.53 1014.17 1014.13 1014.52 1014.86 1015.32 1015.17 1015.62 1015.98 1016.21 1016.14 1015.55
1004.62 1004.42 1004.38 1004.29 1004.53 1004.35 1004.13 1004.40 1004.38 1004.47 1004.51 1004.73 1005.01 1005.33 1005.60 1005.79 1006.01 1006.45 1006.56 1006.70 1006.78 1006.99 1007.35 1007.72 1008.21 1008.76 1009.25 1009.59 1010.05 1011.05 1011.65 1012.73 1012.81 1013.79 1013.97 1014.48 1014.31 1014.83 1015.16 1015.29 1015.31 1015.56 1015.63
1004.57 1004.23 1004.20 1003.82 1003.59 1003.79 1004.17 1003.94 1003.94 1003.89 1003.96 1003.97 1004.21 1004.51 1004.60 1004.92 1005.28 1005.53 1005.71 1005.90 1006.23 1006.61 1007.03 1007.44 1007.93 1008.52 1008.97 1009.57 1010.13 1010.96 1010.81 1011.78 1012.57 1012.75 1013.37 1013.70 1014.09 1014.53 1014.64 1014.65 1014.73 1014.98 1015.26
1004.64 1004.50 1004.48 1004.06 1003.81 1003.31 1003.25 1003.56 1003.52 1003.43 1003.11 1003.01 1003.44 1003.59 1004.07 1004.36 1004.57 1004.73 1004.95 1005.34 1005.81 1006.27 1006.71 1007.17 1007.70 1008.28 1008.72 1009.03 1009.60 1009.97 1010.78 1011.56 1012.08 1012.48 1013.16 1013.40 1013.69 1013.93 1014.04 1014.08 1014.50 1014.83 1014.97
1004.22 1003.88 1003.65 1003.43 1003.23 1002.90 1002.62 1002.26 1002.27 1002.27 1002.23 1002.69 1002.81 1003.17 1003.30 1003.68 1003.83 1004.12 1004.27 1004.66 1005.06 1005.66 1006.32 1006.73 1007.11 1007.50 1008.18 1008.91 1009.41 1009.85 1010.63 1010.93 1011.34 1011.94 1012.43 1012.89 1013.43 1013.58 1013.30 1013.93 1014.44 1014.77 1014.83
1004.04 1003.42 1003.08 1002.80 1002.40 1001.99 1001.80 1001.90 1001.75 1001.62 1001.60 1001.90 1002.29 1002.41 1002.62 1002.76 1003.06 1003.31 1003.69 1004.09 1004.45 1005.08 1005.67 1006.10 1006.68 1007.25 1007.80 1008.50 1009.30 1009.78 1010.43 1010.88 1011.22 1011.79 1012.36 1012.60 1012.69 1012.06 1013.27 1013.92 1014.22 1014.48 1014.44
1003.91 1003.35 1002.78 1002.26 1001.64 1001.47 1001.15 1000.90 1000.90 1000.91 1001.17 1001.57 1001.74 1001.70 1001.81 1002.23 1002.58 1002.89 1003.17 1003.58 1003.88 1004.29 1004.99 1005.63 1006.18 1006.73 1007.26 1008.02 1009.15 1009.79 1010.37 1010.81 1011.35 1011.71 1012.01 1012.37 1011.79 1012.14 1012.91 1013.44 1013.83 1013.95 1014.09
1004.09 1003.46 1002.92 1002.21 1001.59 1001.12 1000.72 1000.52 1000.49 1000.12 1000.28 1000.77 1000.83 1000.91 1001.39 1001.71 1001.97 1002.35 1002.71 1003.24 1003.56 1003.89 1004.34 1005.00 1005.63 1006.33 1006.69 1007.20 1007.92 1008.96 1009.76 1010.48 1011.04 1011.44 1011.78 1011.77 1011.29 1012.15 1012.40 1012.62 1013.15 1013.41 1013.50
1005.03 1004.26 1003.81 1003.03 1002.20 1001.65 1001.30 1000.99 1000.82 1000.44 1000.14 1000.18 1000.20 1000.40 1000.61 1001.03 1001.40 1001.99 1002.50 1002.79 1003.08 1003.45 1004.05 1004.74 1005.30 1005.99 1006.77 1007.37 1007.96 1008.65 1009.88 1010.33 1011.16 1011.38 1011.59 1011.78 1011.30 1011.87 1012.38 1012.44 1012.57 1012.57 1012.78
1005.65 1004.91 1004.41 1003.57 1002.81 1002.17 1001.51 1001.24 1001.02 1001.04 1001.11 1001.23 1001.34 1001.45 1001.76 1001.90 1002.10 1002.58 1002.80 1003.17 1003.48 1003.67 1004.04 1004.80 1005.24 1005.96 1006.93 1007.15 1008.19 1009.06 1009.62 1010.33 1010.85 1011.23 1011.33 1011.20 1011.41 1011.67 1012.03 1012.17 1012.57 1012.79 1012.62
1006.25 1005.77 1005.18 1004.71 1003.74 1002.93 1002.25 1001.72 1001.70 1001.81 1001.99 1002.28 1002.02 1001.83 1001.53 1001.57 1002.07 1002.49 1002.79 1003.14 1003.58 1003.94 1004.31 1004.74 1005.04 1005.85 1006.92 1007.44 1008.31 1008.96 1009.81 1010.29 1010.69 1011.05 1011.15 1011.35 1011.63 1011.67 1011.88 1012.17 1012.31 1012.74 1012.61
1006.40 1005.91 1005.15 1004.92 1004.25 1003.75 1003.04 1002.74 1002.47 1002.35 1002.53 1002.66 1002.52 1002.28 1002.23 1002.36 1002.37 1002.64 1003.25 1003.71 1003.88 1004.15 1004.55 1005.16 1005.24 1005.85 1006.62 1007.59 1008.24 1008.81 1009.38 1009.80 1010.69 1011.15 1011.42 1011.27 1011.26 1011.22 1011.55 1011.68 1011.83 1012.31 1012.16
1006.91 1006.36 1005.71 1005.30 1005.26 1004.75 1004.05 1003.96 1003.71 1003.57 1003.47 1003.01 1002.65 1002.35 1002.07 1001.89 1002.03 1002.40 1002.56 1003.30 1004.47 1005.02 1005.37 1005.97 1006.69 1006.20 1007.26 1008.48 1008.24 1008.47 1008.91 1009.51 1010.14 1010.59 1010.82 1010.83 1011.21 1011.28 1011.55 1011.14 1011.88 1011.99 1012.03
1006.94 1006.39 1006.34 1005.91 1005.67 1005.07 1004.61 1004.46 1004.21 1003.98 1003.72 1003.44 1003.33 1003.25 1003.07 1003.01 1002.57 1002.42 1002.54 1002.52 1003.30 1004.53 1005.59 1006.07 1007.24 1007.49 1007.77 1007.97 1008.44 1008.37 1008.51 1008.92 1009.51 1009.93 1010.43 1010.93 1010.97 1011.12 1011.11 1010.89 1011.09 1011.26 1011.33
1007.63 1006.88 1006.71 1006.30 1006.11 1005.76 1005.23 1004.84 1004.37 1004.11 1004.01 1004.01 1004.04 1003.93 1003.73 1003.60 1003.59 1003.78 1004.02 1004.00 1004.40 1004.77 1005.53 1006.40 1007.14 1007.67 1008.38 1008.42 1008.25 1008.54 1008.77 1009.12 1009.73 1009.90 1010.13 1010.65 1010.85 1010.75 1010.88 1010.74 1010.75 1011.02 1011.19
1007.71 1007.46 1007.05 1006.83 1006.66 1006.21 1006.17 1006.35 1005.82 1005.45 1005.24 1005.14 1004.87 1004.65 1004.59 1004.51 1004.60 1004.57 1004.58 1004.84 1005.23 1005.70 1006.28 1006.85 1007.31 1007.65 1007.81 1008.04 1008.18 1008.50 1008.79 1009.38 1009.96 1010.08 1010.24 1010.14 1010.41 1010.35 1010.52 1010.45 1010.47 1010.45 1010.76
1008.25 1008.10 1007.99 1007.94 1007.89 1007.66 1007.49 1007.18 1006.61 1006.03 1005.96 1006.02 1005.88 1005.69 1005.70 1005.96 1006.03 1006.29 1006.58 1006.50 1006.70 1006.66 1007.06 1007.42 1007.66 1007.78 1007.74 1007.78 1007.97 1008.44 1009.02 1009.57 1009.65 1009.68 1009.93 1010.00 1010.35 1010.35 1010.31 1010.26 1010.58 1010.27 1010.75
1009.16 1008.93 1008.82 1009.08 1009.28 1008.98 1008.65 1008.31 1007.86 1007.40 1006.95 1006.96 1007.12 1007.11 1006.89 1006.79 1006.91 1006.90 1007.02 1007.11 1007.20 1007.15 1007.17 1007.34 1007.59 1007.74 1007.73 1007.76 1007.97 1008.28 1008.61 1008.91 1009.40 1009.72 1009.89 1009.80 1010.14 1010.20 1010.15 1010.09 1010.26 1010.46 1010.84
Thickness
5778 5785 5787 5782 5782 5779 5771 5764 5757 5755 5747 5741 5737 5735 5738 5734 5731 5730 5727 5724 5719 5715 5712 5708 5702 5697 5694 5690 5684 5672 5663 5658 5655 5647 5645 5640 5632 5630 5626 5620 5617 5612 5605
5781 5786 5779 5781 5780 5782 5780 5770 5764 5756 5754 5750 5745 5739 5736 5734 5730 5726 5723 5721 5719 5716 5711 5707 5703 5698 5691 5683 5675 5667 5657 5651 5646 5639 5625 5617 5617 5614 5615 5614 5608 5604 5598
5779 5787 5780 5779 5782 5782 5780 5775 5772 5766 5760 5753 5743 5735 5731 5729 5725 5723 5723 5721 5718 5713 5710 5707 5701 5694 5687 5680 5670 5664 5655 5641 5634 5638 5626 5605 5598 5595 5601 5602 5597 5595 5588
5779 5786 5783 5776 5780 5785 5783 5777 5772 5764 5758 5752 5744 5739 5737 5730 5732 5725 5720 5718 5714 5712 5708 5704 5697 5691 5683 5676 5668 5658 5649 5638 5629 5615 5604 5605 5600 5592 5585 5592 5586 5580 5575
5777 5782 5780 5783 5785 5778 5776 5771 5763 5757 5752 5747 5742 5734 5730 5727 5723 5718 5713 5712 5709 5707 5704 5699 5694 5686 5678 5670 5661 5649 5645 5625 5620 5610 5592 5582 5588 5582 5576 5578 5572 5565 5563
5772 5774 5775 5773 5769 5767 5762 5757 5751 5747 5742 5737 5733 5730 5726 5721 5715 5711 5707 5705 5704 5700 5697 5695 5690 5685 5678 5668 5658 5646 5638 5626 5620 5607 5582 5590 5577 5566 5569 5567 5556 5555 5554
5756 5765 5764 5761 5758 5756 5753 5749 5745 5741 5739 5735 5729 5726 5722 5715 5711 5708 5706 5702 5699 5697 5696 5690 5685 5680 5673 5663 5655 5644 5634 5631 5619 5604 5596 5590 5570 5563 5562 5549 5548 5551 5555
5748 5747 5753 5753 5748 5746 5744 5741 5738 5734 5731 5727 5724 5720 5716 5712 5710 5708 5704 5701 5697 5695 5692 5688 5682 5676 5668 5659 5651 5640 5627 5598 5605 5593 5593 5580 5569 5562 5552 5543 5537 5548 5544
5740 5740 5739 5738 5741 5741 5740 5739 5736 5733 5729 5726 5720 5716 5712 5709 5707 5703 5700 5698 5695 5693 5690 5685 5678 5670 5661 5652 5644 5635 5623 5613 5597 5593 5587 5578 5569 5562 5548 5537 5529 5525 5536
5728 5728 5730 5731 5729 5731 5732 5729 5729 5728 5728 5724 5722 5716 5711 5708 5704 5698 5695 5693 5692 5689 5684 5678 5671 5663 5655 5649 5642 5628 5618 5605 5600 5587 5581 5570 5564 5549 5539 5532 5524 5515 5512
5722 5721 5720 5724 5727 5726 5723 5724 5722 5722 5719 5718 5716 5713 5711 5705 5701 5695 5691 5691 5688 5682 5675 5668 5660 5652 5646 5636 5627 5614 5612 5601 5590 5584 5574 5563 5552 5542 5533 5525 5517 5508 5497
5710 5709 5709 5709 5711 5718 5720 5716 5717 5717 5719 5718 5713 5712 5706 5700 5695 5691 5688 5685 5678 5671 5665 5658 5650 5641 5633 5627 5619 5615 5602 5590 5582 5572 5561 5553 5543 5535 5525 5517 5506 5495 5486
5706 5709 5709 5709 5708 5709 5710 5712 5714 5715 5717 5711 5709 5705 5701 5695 5690 5685 5683 5677 5671 5663 5655 5648 5640 5633 5624 5614 5606 5599 5588 5582 5574 5562 5553 5542 5531 5523 5517 5504 5493 5482 5476
5701 5705 5706 5706 5706 5708 5709 5706 5703 5706 5712 5707 5702 5699 5696 5692 5686 5681 5676 5671 5664 5656 5647 5639 5631 5622 5614 5605 5594 5586 5577 5568 5559 5547 5537 5529 5522 5521 5503 5490 5480 5472 5465
5691 5693 5695 5700 5702 5701 5702 5703 5702 5703 5701 5697 5694 5694 5690 5684 5679 5674 5670 5664 5658 5650 5639 5630 5623 5615 5607 5596 5582 5571 5561 5552 5542 5533 5525 5516 5514 5503 5491 5481 5471 5463 5458
5676 5682 5685 5688 5693 5694 5694 5693 5693 5697 5694 5689 5688 5687 5681 5676 5672 5668 5662 5654 5648 5641 5634 5624 5614 5604 5597 5585 5574 5561 5550 5539 5528 5518 5510 5504 5501 5489 5482 5474 5463 5456 5450
5656 5661 5662 5667 5674 5678 5680 5680 5680 5682 5683 5683 5681 5677 5674 5668 5663 5653 5645 5641 5635 5629 5620 5609 5599 5587 5576 5564 5555 5545 5531 5522 5510 5502 5495 5488 5486 5477 5468 5462 5455 5450 5444
5638 5643 5645 5651 5655 5660 5665 5667 5669 5669 5667 5664 5660 5656 5652 5648 5642 5634 5630 5623 5614 5608 5600 5588 5580 5569 5555 5548 5535 5524 5514 5505 5495 5487 5482 5478 5470 5464 5458 5451 5443 5437 5434
5622 5624 5628 5631 5637 5644 5651 5655 5654 5652 5648 5643 5643 5642 5641 5636 5627 5622 5615 5607 5598 5589 5580 5571 5562 5551 5536 5527 5515 5507 5495 5487 5479 5471 5466 5461 5454 5447 5441 5435 5430 5422 5420
5608 5612 5619 5621 5626 5628 5633 5636 5636 5636 5632 5628 5626 5624 5621 5615 5609 5603 5592 5584 5578 5571 5561 5549 5542 5529 5518 5507 5498 5489 5481 5474 5461 5455 5447 5446 5441 5435 5430 5427 5422 5414 5412
5592 5597 5603 5606 5604 5607 5613 5611 5610 5608 5605 5607 5607 5606 5605 5601 5596 5587 5580 5568 5553 5543 5535 5523 5509 5507 5494 5481 5481 5475 5467 5459 5449 5442 5437 5434 5427 5421 5415 5417 5406 5403 5399
5580 5584 5584 5587 5587 5590 5593 5592 5592 5589 5587 5585 5582 5579 5576 5573 5570 5566 5559 5555 5543 5530 5514 5503 5486 5482 5473 5470 5462 5457 5452 5445 5438 5431 5423 5416 5414 5410 5406 5405 5400 5396 5393
5560 5566 5567 5569 5568 5569 5572 5576 5574 5570 5567 5563 5557 5552 5547 5542 5537 5530 5522 5517 5511 5503 5492 5478 5467 5458 5449 5444 5441 5436 5430 5425 5417 5411 5408 5402 5398 5397 5392 5392 5389 5383 5382
5548 5549 5549 5549 5547 5547 5543 5536 5537 5536 5533 5528 5524 5520 5515 5509 5501 5496 5491 5486 5478 5469 5458 5450 5442 5439 5434 5429 5423 5417 5412 5404 5397 5394 5389 5390 5386 5384 5381 5381 5378 5377 5373
5527 5526 5523 5520 5517 5513 5509 5507 5506 5505 5501 5495 5490 5486 5480 5471 5462 5451 5443 5441 5434 5433 5427 5422 5418 5414 5411 5408 5403 5397 5390 5384 5383 5381 5377 5377 5372 5371 5371 5369 5366 5368 5361
5500 5498 5496 5490 5484 5481 5479 5475 5471 5468 5465 5457 5448 5440 5436 5430 5425 5421 5416 5411 5408 5406 5404 5400 5393 5387 5384 5383 5383 5379 5376 5374 5368 5365 5363 5363 5360 5360 5360 5360 5358 5355 5350